Weather History for Inverness, FL

Change the Weather History Date:

Wednesday, October 31, 2012

  Actual Average (KOCF) Record (KOCF)
Temperature  
Mean Temperature 55 °F -  
Max Temperature 69 °F 77 °F 86 °F (1996)
Min Temperature 41 °F 55 °F 41 °F (2012)
Degree Days  
Heating Degree Days 10    
Growing Degree Days 5 (Base 50)    
Moisture  
Dew Point 42 °F    
Average Humidity 67    
Maximum Humidity 100    
Minimum Humidity 32    
Precipitation  
Precipitation 0.00 in - - ()
Sea Level Pressure  
Sea Level Pressure 30.02 in    
Wind  
Wind Speed 2 mph ()    
Max Wind Speed 10 mph    
Max Gust Speed 20 mph    
Averages and records for this station are not official NWS values.
T = Trace of Precipitation, MM = Missing Value Source: Averaged Metar Reports

Daily Weather History Graph

Daily Weather History Graph

Search for Another Location

Airport:

Trip Planner

Search our weather history database for the weather conditions in past years. The results will help you decide how hot, cold, wet, or windy it might be!

Date:

Astronomy

Oct. 31, 2012 Rise Set
Actual Time 7:41 AM EDT 6:44 PM EDT
Civil Twilight 7:16 AM EDT 7:08 PM EDT
Nautical Twilight 6:48 AM EDT 7:36 PM EDT
Astronomical Twilight 6:21 AM EDT 8:04 PM EDT
Moon 8:03 PM EDT (10/31) 9:12 AM EDT (10/31)
Length of Visible Light 11h 51m
Length of Day
11h 03m
Full, 97% of the Moon is Illuminated
Oct 31
Full
Nov 6
Last Quarter
Nov 13
New
Nov 20
First Quarter
Nov 28
Full

Hourly Weather History & Observations

Time (EDT) Temp. Dew Point Humidity Pressure Visibility Wind Dir Wind Speed Gust Speed Precip Events Conditions
12:15 AM 48.2 °F 44.6 °F 87% 29.98 in - Calm Calm - N/A   Unknown
12:35 AM 46.4 °F 44.6 °F 93% 29.98 in - Calm Calm - N/A   Unknown
1:15 AM 46.4 °F 44.6 °F 93% 29.98 in - Calm Calm - N/A   Unknown
1:35 AM 46.4 °F 44.6 °F 93% 29.98 in - Calm Calm - N/A   Unknown
1:55 AM 50.0 °F 42.8 °F 76% 29.98 in - Calm Calm - N/A   Clear
2:15 AM 50.0 °F 42.8 °F 76% 29.98 in - Calm Calm - N/A   Clear
2:35 AM 50.0 °F 42.8 °F 76% 29.98 in - Calm Calm - N/A   Clear
2:55 AM 46.4 °F 42.8 °F 87% 29.99 in - Calm Calm - N/A   Clear
3:15 AM 44.6 °F 41.0 °F 87% 29.99 in - Calm Calm - N/A   Unknown
3:35 AM 42.8 °F 41.0 °F 93% 29.99 in - Calm Calm - N/A   Unknown
3:55 AM 42.8 °F 41.0 °F 93% 29.99 in - Calm Calm - N/A   Unknown
4:15 AM 42.8 °F 39.2 °F 87% 30.00 in - Calm Calm - N/A   Unknown
4:35 AM 41.0 °F 39.2 °F 93% 30.00 in - Calm Calm - N/A   Unknown
4:55 AM 41.0 °F 41.0 °F 100% 30.00 in - Calm Calm - N/A   Unknown
5:15 AM 41.0 °F 41.0 °F 100% 30.00 in - Calm Calm - N/A   Unknown
5:35 AM 41.0 °F 41.0 °F 100% 30.01 in - Calm Calm - N/A   Unknown
5:55 AM 41.0 °F 41.0 °F 100% 30.01 in - Calm Calm - N/A   Unknown
6:15 AM 41.0 °F 39.2 °F 93% 30.01 in - Calm Calm - N/A   Unknown
6:35 AM 41.0 °F 41.0 °F 100% 30.02 in - Calm Calm - N/A   Unknown
6:55 AM 44.6 °F 41.0 °F 87% 30.03 in - Calm Calm - N/A   Clear
7:15 AM 46.4 °F 39.2 °F 76% 30.02 in - Calm Calm - N/A   Clear
7:35 AM 46.4 °F 41.0 °F 81% 30.03 in - Calm Calm - N/A   Clear
7:55 AM 44.6 °F 41.0 °F 87% 30.04 in - Calm Calm - N/A   Clear
8:15 AM 50.0 °F 39.2 °F 66% 30.05 in - Calm Calm - N/A   Clear
8:35 AM 51.8 °F 39.2 °F 62% 30.05 in - Calm Calm - N/A   Clear
8:55 AM 53.6 °F 39.2 °F 58% 30.06 in - North 3.5 mph - N/A   Clear
9:15 AM 55.4 °F 37.4 °F 51% 30.06 in - NNW 3.5 mph - N/A   Clear
9:35 AM 59.0 °F 37.4 °F 45% 30.07 in - NNW 3.5 mph - N/A   Clear
9:55 AM 60.8 °F 35.6 °F 39% 30.07 in - North 3.5 mph - N/A   Clear
10:15 AM 60.8 °F 35.6 °F 39% 30.08 in - Calm Calm - N/A   Clear
10:35 AM 62.6 °F 35.6 °F 37% 30.08 in - NW 4.6 mph - N/A   Clear
10:55 AM 62.6 °F 33.8 °F 34% 30.08 in - NNW 4.6 mph - N/A   Clear
11:15 AM 64.4 °F 33.8 °F 32% 30.08 in - NW 4.6 mph - N/A   Clear
11:35 AM 64.4 °F 33.8 °F 32% 30.07 in - WNW 6.9 mph - N/A   Clear
11:55 AM 66.2 °F 35.6 °F 32% 30.07 in - WNW 5.8 mph - N/A   Clear
12:15 PM 68.0 °F 37.4 °F 33% 30.06 in - NW 6.9 mph - N/A   Clear
12:35 PM 68.0 °F 37.4 °F 33% 30.05 in - NNW 9.2 mph - N/A   Clear
12:55 PM 68.0 °F 37.4 °F 33% 30.05 in - West 9.2 mph 17.3 mph N/A   Clear
1:15 PM 68.0 °F 37.4 °F 33% 30.05 in - WNW 9.2 mph 17.3 mph N/A   Clear
1:35 PM 68.0 °F 39.2 °F 35% 30.03 in - West 10.4 mph 19.6 mph N/A   Clear
1:55 PM 68.0 °F 37.4 °F 33% 30.02 in - NW 5.8 mph 18.4 mph N/A   Clear
2:15 PM 69.8 °F 39.2 °F 33% 30.02 in - WNW 10.4 mph 17.3 mph N/A   Clear
2:35 PM 69.8 °F 39.2 °F 33% 30.01 in - NW 8.1 mph - N/A   Clear
2:55 PM 68.0 °F 39.2 °F 35% 30.00 in - WNW 6.9 mph 16.1 mph N/A   Clear
3:15 PM 69.8 °F 39.2 °F 33% 29.99 in - WNW 6.9 mph 17.3 mph N/A   Clear
3:55 PM 69.8 °F 41.0 °F 35% 29.99 in - NW 5.8 mph - N/A   Clear
4:15 PM 68.0 °F 41.0 °F 37% 29.98 in - West 6.9 mph 16.1 mph N/A   Clear
4:35 PM 69.8 °F 42.8 °F 38% 29.98 in - West 4.6 mph - N/A   Clear
4:55 PM 68.0 °F 42.8 °F 40% 29.98 in - WSW 6.9 mph - N/A   Clear
5:15 PM 68.0 °F 44.6 °F 43% 29.99 in - West 5.8 mph - N/A   Clear
5:35 PM 68.0 °F 44.6 °F 43% 29.99 in - West 6.9 mph - N/A   Clear
5:55 PM 66.2 °F 44.6 °F 46% 29.99 in - Calm Calm - N/A   Clear
6:15 PM 64.4 °F 44.6 °F 49% 29.99 in - Calm Calm - N/A   Clear
6:35 PM 62.6 °F 46.4 °F 55% 29.99 in - Calm Calm - N/A   Clear
6:55 PM 60.8 °F 46.4 °F 59% 29.99 in - Calm Calm - N/A   Clear
7:15 PM 57.2 °F 46.4 °F 67% 30.00 in - Calm Calm - N/A   Clear
7:35 PM 55.4 °F 48.2 °F 77% 30.00 in - Calm Calm - N/A   Clear
7:55 PM 55.4 °F 48.2 °F 77% 30.00 in - Calm Calm - N/A   Clear
8:15 PM 53.6 °F 48.2 °F 82% 30.00 in - Calm Calm - N/A   Clear
8:35 PM 53.6 °F 48.2 °F 82% 30.01 in - Calm Calm - N/A   Clear
8:55 PM 55.4 °F 50.0 °F 82% 30.01 in - Calm Calm - N/A   Clear
9:15 PM 53.6 °F 48.2 °F 82% 30.02 in - Calm Calm - N/A   Clear
9:35 PM 53.6 °F 50.0 °F 88% 30.03 in - Calm Calm - N/A   Unknown
9:55 PM 51.8 °F 50.0 °F 94% 30.02 in - Calm Calm - N/A   Unknown
10:15 PM 51.8 °F 50.0 °F 94% 30.03 in - Calm Calm - N/A   Unknown
10:35 PM 51.8 °F 50.0 °F 94% 30.03 in - Calm Calm - N/A   Unknown
10:55 PM 51.8 °F 50.0 °F 94% 30.03 in - Calm Calm - N/A   Unknown
11:15 PM 51.8 °F 51.8 °F 100% 30.03 in - Calm Calm - N/A   Unknown
11:35 PM 51.8 °F 51.8 °F 100% 30.03 in - Calm Calm - N/A   Unknown
11:55 PM 51.8 °F 50.0 °F 94% 30.03 in - Calm Calm - N/A   Unknown